Flag for France Weather past 2 weeks in Reims, France

Now
72 °F

Clear.


Feels Like: 75 °F
Forecast: 62 / 77 °F
Wind: 2 mph from North

Location: Chalons-Vatry

Current Time: Aug 1, 2014 at 10:45:12 AM

Latest Report: Aug 1, 2014 at 10:00 AM


Visibility: N/A

Pressure: 29.86 "Hg

Humidity: 65%

Dew point: 59 °F

Location of ReimsLocation

Historic Weather in Reims — Graph

°F

Reims temperature yesterday

Maximum temperature yesterday: 81 °F (at 3:30 PM)
Minimum temperature yesterday: 57 °F (at 4:30 AM)
Average temperature yesterday: 69 °F

Past Weeks' High & Low Weather Summary

 TemperatureHumidityPressure
High95 °F (Jul 18, 4:00 PM)100% (Jul 20, 11:30 PM)30.15 "Hg (Jul 20, 11:30 PM)
Low55 °F (Jul 25, 5:30 AM)27% (Jul 24, 4:00 PM)29.80 "Hg (Jul 19, 7:30 AM)
Average70 °F71%29.95 "Hg
* Reported Jul 17 10:00 AM — Aug 1 10:00 AM, Reims, Weather by CustomWeather, © 2014

Note: Actual official high and low records may vary slightly from our data, if they occured in-between our weather recording intervals... More about our weather records

Advertising

Reims weather history for previous 24 hours

 ConditionsComfort  
Time TempWeatherWind HumidityBarometerVisibility
10:00 AM
Aug 1
72 °FClear.2 mph65%29.86 "HgN/A
9:30 AM68 °FClear.2 mph73%29.89 "HgN/A
9:00 AM64 °FClear.6 mph78%29.89 "HgN/A
8:30 AM64 °FClear.6 mph73%29.89 "HgN/A
8:00 AM63 °FClear.7 mph83%29.89 "HgN/A
7:30 AM59 °FClear.7 mph88%29.89 "HgN/A
7:00 AM59 °FClear.6 mph82%29.89 "HgN/A
6:30 AM59 °FClear.2 mph82%29.89 "HgN/A
6:00 AM61 °FClear.5 mph77%29.89 "HgN/A
5:30 AM61 °FClear.7 mph77%29.89 "HgN/A
5:00 AM61 °FClear.8 mph83%29.89 "HgN/A
4:30 AM61 °FClear.6 mph83%29.92 "HgN/A
4:00 AM63 °FClear.6 mph73%29.92 "HgN/A
3:30 AM63 °FClear.5 mph77%29.92 "HgN/A
3:00 AM64 °FClear.3 mph68%29.92 "HgN/A
2:30 AM64 °FClear.3 mph68%29.92 "HgN/A
2:00 AM64 °FClear.3 mph73%29.92 "HgN/A
1:30 AM66 °FClear.3 mph68%29.92 "HgN/A
1:00 AM64 °FPassing clouds.5 mph73%29.92 "HgN/A
12:30 AM64 °FClear.1 mph68%29.92 "HgN/A
12:00 AM68 °FClear.3 mph60%29.92 "HgN/A
11:30 PM
Jul 31
68 °FClear.3 mph64%29.92 "HgN/A
11:00 PM70 °FClear.3 mph60%29.92 "HgN/A
10:30 PM70 °FClear.3 mph60%29.95 "HgN/A
10:00 PM72 °FClear.3 mph57%29.95 "HgN/A
9:30 PM72 °FClear.3 mph57%29.95 "HgN/A
9:00 PM73 °FClear.5 mph53%29.92 "HgN/A
8:30 PM75 °FClear.5 mph57%29.92 "HgN/A
8:00 PM77 °FClear.5 mph51%29.92 "HgN/A
7:30 PM79 °FClear.6 mph48%29.95 "HgN/A
7:00 PM79 °FClear.6 mph48%29.95 "HgN/A
6:30 PM77 °FClear.5 mph51%29.95 "HgN/A
6:00 PM79 °FPassing clouds.7 mph42%29.95 "HgN/A
5:30 PM79 °FClear.5 mph45%29.95 "HgN/A
5:00 PM81 °FClear.5 mph42%29.95 "HgN/A
4:30 PM81 °FClear.5 mph42%29.95 "HgN/A
4:00 PM81 °FClear.7 mph42%29.95 "HgN/A
3:30 PM81 °FClear.6 mph42%29.98 "HgN/A
3:00 PM79 °FClear.7 mph48%29.98 "HgN/A
2:30 PM77 °FClear.2 mph54%29.98 "HgN/A
2:00 PM77 °FClear.3 mph51%29.98 "HgN/A
1:30 PM77 °FPartly sunny.1 mph54%30.01 "HgN/A
1:00 PM73 °FPartly sunny.3 mph57%30.01 "HgN/A
12:30 PM73 °FScattered clouds.3 mph61%30.01 "HgN/A
12:00 PM75 °FBroken clouds.2 mph57%30.01 "HgN/A
11:30 AM73 °FBroken clouds.2 mph61%30.01 "HgN/A
11:00 AM72 °FPassing clouds.2 mph69%30.01 "HgN/A
10:00 AM70 °FClear.2 mph73%30.01 "HgN/A
Weather by CustomWeather, © 2014

See weather overviewHow to use our weather pages